Terminal Aerodrome Forecast
Issued by NWS

Current Version | Previous Version | Graphics & Text | Print | Product List | Glossary On
Versions: 1 2 3 4 5 6 7 8 9 10 11 12 13 14 15 16 17 18 19 20 21 22 23 24 25 26 27 28 29 30 31 32 33 34 35 36 37 38 39 40 41 42 43 44 45 46 47 48 49 50
000
FTUS41 KRNK 291416 AAB
TAFLWB
TAF AMD
KLWB 291416Z 2914/3012 00000KT P6SM OVC006
     FM291430 25003KT P6SM SCT006 BKN015
     FM292000 26003KT P6SM VCTS BKN040CB OVC250
     FM300000 00000KT P6SM SCT040 BKN250
     FM300400 00000KT 4SM BR SCT100 BKN250
     FM300800 00000KT 3SM BR BKN100 OVC250=

USA.gov is the U.S. government's official web portal to all federal, state and local government web resources and services.